www.pogodaiklimat.ru

Погода и климат >> Архив погоды >> Иран >> Ахваз


ПОГОДА в Ахвазе

  • Прогноз погоды в Ахвазе
  • Монитор погоды в Ахвазе

АРХИВ ПОГОДЫ в Ахвазе

Время (UTC), дата Ветер
(напр.,м/с)
 
Видим.   Явления Облачность Т
(С)
Тd
(С)
f
(%)
Тe
(С)
Тes
(С)
Комфортность P
(гПа)
Po
(гПа)
Тmin
(С)
Tmax
(С)
R
(мм)
R24
(мм)
S
(см)
21 12.02 ЮЗ 1 7000 м дымка ясно +11.1 +9.4 89 +11 +11 1021.1 1018.5
00 13.02 З 2 5000 м дымка ясно +11.0 +9.7 92 +10 +10 1021.4 1018.8
03 13.02 ЮЗ 1 4500 м дымка ясно +8.1 +7.4 95 +7 +7 1022.3 1019.6 +8.1 666
06 13.02 С 1 4000 м мгла ясно +14.4 +10.5 77 +15 +22 1024.1 1021.5
09 13.02 З 1 6000 м мгла 3/3 1200 м
[Cu hum]
+18.1 +11.7 66 +19 +29 1023.5 1020.9
12 13.02 СВ 1 6000 м мгла 8/3 1200 м
[Cu med, cong Cs]
+21.2 +8.5 44 +22 +25 комфорт 1021.4 1018.7
15 13.02 З 2 8000 м мгла 1/1 1200 м
[Cu hum]
+17.6 +9.2 58 +18 +18 1021.3 1018.6 +21.7
18 13.02 С 1 8000 м мгла ясно +12.3 +8.1 76 +12 +12 1021.3 1018.7
21 13.02 СЗ 2 7000 м мгла ясно +13.4 +7.5 67 +13 +13 1021.6 1019.0
00 14.02 СВ 2 7000 м мгла ясно +11.6 +8.1 79 +11 +11 1020.5 1017.9
03 14.02 В 1 3000 м дымка ясно +8.7 +7.9 95 +8 +8 1020.2 1017.6 +8.6
06 14.02 В 1 3500 м мгла 4/0
[Ac trans]
+14.1 +9.9 76 +14 +20 1021.0 1018.3
09 14.02 В 1 8000 м мгла 9/0
[Ac und Cs]
+18.8 +9.9 56 +21 +28 комфорт 1020.2 1017.5
12 14.02 В 2 10 км 8/0
[Cs]
+19.4 +9.0 51 +21 +24 комфорт 1017.4 1014.7
15 14.02 ЮВ 1 10 км 9/5 1050 м
[Cb calv Ac As]
+18.3 +8.0 51 +20 +20 1016.4 1013.7 +20.2 666
18 14.02 В 3 10 км 6/6 1050 м
[Cb calv]
+15.9 +10.7 71 +15 +15 1017.0 1014.4
21 14.02 Ю 2 7000 м ливневой дождь 9/8 1050 м
[Cb calv Ac As]
+15.4 +11.2 76 +15 +15 1017.5 1014.9
00 15.02 В 1 7000 м дымка {ливн. осадки} 10/8 900 м
[Cb calv Ac As]
+14.5 +11.3 81 +15 +15 1017.3 1014.7 2
03 15.02 В 2 8000 м дымка {гроза, ливн. осадки} 8/5 900 м
[Cb calv Ac As]
+13.7 +11.4 86 +13 +13 1015.3 1012.7 +13.5
06 15.02 В 3 10 км {гроза, ливн. осадки} 8/5 900 м
[Cb calv Ac As]
+15.8 +12.5 81 +15 +17 1015.5 1012.8 2
09 15.02 ЮВ 7 10 км 8/5 900 м
[Cb calv Ac cuf]
+21.0 +11.1 53 +23 +24 комфорт 1014.5 1011.9
12 15.02 ЮВ 8 10 км 1/0
[Ac cuf]
+21.5 +10.5 50 +23 +24 комфорт 1012.6 1010.0
15 15.02 ЮВ 8 10 км 5/3 1200 м
[Sc Ac As]
+18.6 +10.0 57 +18 +18 1012.8 1010.2 +22.6 666
18 15.02 Ю 5 10 км 6/3 1200 м
[Sc Ac As]
+17.8 +9.4 58 +17 +17 1014.6 1012.0
21 15.02 Ю 4 10 км 4/0
[Ac trans]
+16.2 +10.4 68 +16 +16 1014.3 1011.7
00 16.02 Ю 3 10 км 6/3 1050 м
[Sc Ac trans]
+15.6 +11.7 78 +15 +15 1014.5 1011.9
03 16.02 З 1 10 км 6/3 1200 м
[Sc Ac trans]
+15.1 +13.0 87 +16 +16 1015.4 1012.8 +15.1 666
06 16.02 СЗ 3 6000 м мгла 8/4 1200 м
[Sc Ac As]
+16.6 +8.4 58 +16 +18 1017.6 1015.0
09 16.02 СЗ 3 10 км 6/4 1200 м
[Sc Ac As]
+18.2 +7.4 49 +18 +23 1018.1 1015.5
12 16.02 СЗ 3 10 км 3/3 1200 м
[Sc]
+19.9 -0.4 26 +20 +23 1016.7 1014.1
15 16.02 СЗ 4 10 км ясно +16.8 +4.3 43 +16 +16 1017.3 1014.7 +20.3
18 16.02 СЗ 2 10 км ясно +13.8 +5.1 56 +13 +13 1019.3 1016.6
21 16.02 СЗ 1 10 км ясно +11.2 +5.5 68 +11 +11 1019.3 1016.7
00 17.02 З 1 10 км ясно +10.1 +6.5 78 +10 +10 1018.7 1016.1
03 17.02 З 1 8000 м дымка ясно +7.2 +6.1 93 +6 +6 1019.7 1017.1 +7.1
06 17.02 З 3 8000 м мгла ясно +13.0 +7.3 68 +12 +17 1020.0 1017.4
09 17.02 СЗ 4 10 км ясно +17.6 +5.7 46 +17 +25 1019.3 1016.7
12 17.02 СЗ 4 10 км 3/0
[Ac lent]
+19.8 +7.0 43 +21 +23 комфорт 1017.0 1014.3
15 17.02 З 3 10 км ясно +17.3 +6.5 49 +17 +17 1017.0 1014.3 +20.3
18 17.02 СЗ 2 10 км ясно +15.5 +5.1 50 +16 +16 1018.0 1015.4
21 17.02 С 1 10 км ясно +12.0 +7.5 74 +12 +12 1018.0 1015.3
00 18.02 З 1 10 км ясно +8.9 +7.4 90 +8 +8 1016.8 1014.2
03 18.02 З 1 10 км ясно +8.2 +7.1 93 +7 +7 1016.8 1014.2 +8.2
06 18.02 В 1 10 км ясно +14.8 +9.1 69 +15 +23 1017.3 1014.7
09 18.02 СЗ 2 10 км 5/5 1200 м
[Cu hum]
+18.5 +6.1 44 +19 +25 1016.2 1013.6 666
12 18.02 СЗ 3 10 км 4/4 1200 м
[Cu hum]
+19.7 +4.5 37 +20 +23 1013.8 1011.1
15 18.02 З 2 10 км ясно +17.0 +4.9 45 +17 +17 1012.8 1010.1 +20.4 666
18 18.02 З 1 10 км ясно +14.0 +5.6 57 +15 +15 1013.4 1010.7
21 18.02 СЗ 1 10 км ясно +12.8 +7.3 69 +13 +13 1013.3 1010.7
00 19.02 Ю 1 10 км ясно +9.0 +6.5 84 +8 +8 1012.6 1010.0
03 19.02 З 1 10 км ясно +8.5 +7.0 90 +8 +8 1012.1 1009.5 +8.1 666
06 19.02 СЗ 3 8000 м мгла 1/0
[Ac trans]
+15.0 +6.8 58 +14 +19 1013.8 1011.1
09 19.02 СЗ 4 10 км 4/4 1200 м
[Cu hum]
+18.0 +4.5 41 +18 +23 1014.1 1011.5
12 19.02 СЗ 4 10 км 3/3 1200 м
[Cu med, cong]
+19.2 +5.7 41 +20 +22 1013.1 1010.5
15 19.02 З 4 10 км 3/3 1200 м
[Cu hum]
+16.7 +5.6 48 +16 +16 1014.1 1011.4 +19.3
18 19.02 З 4 10 км 4/4 1200 м
[Sc]
+15.1 +6.5 56 +14 +14 1016.0 1013.4

 

Местоположение метеостанции Ахваз (Иран): широта 31.33 долгота 48.67 высота над уровнем моря 22 м.

В архиве по умолчанию представлена погода в Ахвазе за последнюю неделю. Архивные данные за месяц целиком и за предыдущие месяцы, начиная с января 2011 года, Вы можете получить, выбрав интересующий диапазон дат из раскрывающегося списка и нажав кнопку "Ввод!".


*Определитесь, кто Вы:
робот инопланетянин человек

Внимание! Время в таблицах - всемирное. Для получения местного времени необходимо прибавить поправку, которая равна 3.5 ч.

Смотрите также архив погоды в соседних городах и на ближайших метеорологических станциях:

Погода в Месджеде-Солеймане (Иран) (92 км)
Погода в Сафиабаде (Иран) (107 км)
Погода в Омидийе (Иран) (114 км)
Погода в Абадане (Иран) (114 км)
Погода в Басре (Ирак) (120 км)
Погода в Басре аэропорт (Ирак) (124 км)
Погода в Эль-Фао (Ирак) (151 км)
Погода в Амаре (Ирак) (153 км)
Погода в Абдали (Кувейт) (167 км)
Погода на Бубияне (Кувейт) (176 км)

Пояснения к столбцам:

Ветер - указаны скорость ветра в м/с - средняя за 10 мин, порывы в срок и между сроками (в фигурных скобках) и направление, откуда дует ветер: С - северный, СВ - северо-восточный, В - восточный, ЮВ - юго-восточный, Ю - южный, ЮЗ - юго-западный, З - западный, СЗ - северо-западный.
Видимость - горизонтальная дальность видимости в метрах или километрах. При видимости от 1 до 10 км при отсутствии осадков обычно наблюдается дымка, при ухудшении видимости до 1 км и менее - туман. В сухую погоду видимость может ухудшаться дымом, пылью или мглою.
Явления - указаны атмосферные явления, наблюдавшиеся в срок или в последний час перед сроком; фигурными скобками обозначены явления, наблюдавшиеся между сроками (за 1-3 часа до срока); квадратными скобками обозначены град или гололедные отложения с указанием их диаметра в мм.
Облачность - указаны через наклонную черту общая и нижняя облачность в баллах и высота нижней границы облаков в метрах; квадратными скобками обозначены формы облаков: Ci - перистые, Cs - перисто-слоистые, Cc - перисто-кучевые, Ac - высококучевые, As - высокослоистые, Sc - слоисто-кучевые, Ns - слоисто-дождевые, Cu - кучевые, Cb - кучево-дождевые. Подробнее классификацию облаков см. в Атласе облаков (PDF).
T - Температура воздуха - температура, измеренная на высоте 2 м над землей.
Td - Температура точки росы - температура, при понижении до которой содержащийся в воздухе водяной пар достигнет насыщения.
f - Относительная влажность воздуха - влажноcть воздуха, измеренная на высоте 2 м над землей.
Te - Эффективная температура - температура, которую ощущает одетый по сезону человек в тени. Характеристика душности погоды. При расчете учитывается влияние влажности воздуха и скорости ветра на теплоощущения человека.
Tes - Эффективная температура на солнце - температура, которую ощущает человек, с поправкой на солнечный нагрев. Характеристика знойности погоды. Зависит от высоты солнца над горизонтом, облачности и скорости ветра. Ночью, в пасмурную погоду, а также при ветре 12 м/с и более поправка равна нулю.
P - Атмосферное давление - приведенное к уровню моря атмосферное давление.
Po - Атмосферное давление - измеренное на уровне метеостанции атмосферное давление.
Tmin - Минимальная температура - минимум температуры воздуха на высоте 2 м над землей.
Tmax - Максимальная температура - максимум температуры воздуха на высоте 2 м над землей.
R - Количество осадков - Количество выпавших осадков за период времени, мм. При наведении курсора мыши на число - период времени, за который выпало указанное количество осадков.
R24 - Количество осадков - Количество выпавших осадков за 24 часа, мм.
S - Снежный покров - Высота снежного покрова, см. При наведении курсора мыши на число - состояние снежного покрова и степень покрытия местности в баллах.